Temp
11 11 11 11 11 10 10 10 10 10 10 10 9 9 9 8 8 8 8 8 7 7 7 7 7 7 7
11 11 11 11 12 11 10 10 10 10 10 10 9 9 9 8 8 8 8 7 7 7 7 7 7 7 7
10 11 11 11 11 11 10 10 10 10 9 9 9 9 9 9 8 8 8 8 8 8 8 7 7 7 7
9 10 10 11 11 11 10 10 10 10 9 9 9 9 9 9 9 9 9 8 9 8 8 8 8 7 7
9 9 10 10 10 10 11 11 10 10 10 9 9 9 9 9 9 9 9 9 9 8 8 8 7 7 7
9 8 9 9 10 10 10 10 9 10 10 10 10 10 10 10 9 9 9 9 8 8 8 8 7 7 7
10 8 8 10 10 9 9 9 10 10 10 9 9 9 9 9 9 8 8 8 8 8 8 8 7 7 7
9 9 8 9 11 11 10 10 9 9 9 9 9 9 9 9 8 8 8 8 8 8 7 7 6 6 6
9 8 7 8 8 8 7 8 8 8 8 8 8 8 8 8 7 8 8 8 7 7 6 6 6 5 5
7 7 8 8 7 8 8 8 7 7 7 8 7 8 7 7 7 7 7 7 7 6 5 5 5 4 4
7 7 7 7 7 8 8 8 8 7 8 8 7 7 6 6 7 7 7 6 6 6 6 5 4 3 3
7 7 7 7 7 7 8 7 8 8 8 7 7 7 6 6 5 6 6 4 5 5 5 4 2 2 2
7 7 7 7 7 7 7 7 7 7 6 6 5 5 4 4 4 4 4 4 4 5 4 1 0 1 2
7 7 7 6 7 6 7 6 6 6 5 5 5 4 4 4 3 3 3 2 3 3 2 0 0 1 1
6 7 7 7 6 6 6 6 5 5 5 4 4 4 3 3 3 2 2 2 2 1 0 -0 0 -0 -0
6 6 6 7 7 6 6 5 5 4 5 4 3 3 2 2 2 2 2 2 2 1 0 1 1 -1 -2
6 5 5 6 6 6 5 5 4 4 4 4 3 3 3 3 2 1 1 1 1 -0 -0 -1 -1 -2 -2
Height
1469 1475 1478 1481 1484 1488 1493 1500 1505 1509 1513 1516 1519 1522 1525 1528 1531 1535 1538 1539 1541 1542 1543 1544 1545 1546 1546
1460 1464 1467 1473 1477 1481 1486 1492 1498 1503 1507 1510 1513 1517 1519 1522 1526 1528 1530 1532 1534 1535 1537 1539 1539 1540 1541
1448 1453 1459 1464 1469 1475 1480 1486 1491 1496 1500 1504 1507 1510 1513 1515 1518 1521 1524 1526 1528 1529 1530 1531 1533 1533 1533
1438 1444 1450 1455 1461 1467 1472 1477 1482 1486 1491 1496 1500 1503 1506 1509 1512 1515 1517 1519 1521 1522 1524 1525 1525 1525 1525
1427 1435 1439 1445 1451 1458 1464 1470 1474 1479 1483 1487 1491 1496 1499 1502 1505 1507 1510 1512 1514 1515 1515 1516 1516 1516 1516
1420 1424 1430 1436 1444 1449 1456 1461 1466 1470 1474 1479 1483 1488 1492 1494 1497 1500 1503 1504 1506 1506 1507 1507 1506 1507 1506
1409 1415 1422 1426 1435 1440 1446 1453 1455 1461 1466 1471 1475 1479 1484 1487 1490 1493 1495 1496 1498 1499 1499 1498 1498 1498 1497
1399 1407 1414 1420 1426 1432 1439 1446 1448 1453 1459 1463 1468 1472 1476 1480 1482 1485 1487 1489 1490 1491 1491 1490 1489 1489 1488
1390 1398 1406 1413 1420 1426 1428 1436 1439 1443 1449 1454 1459 1464 1468 1471 1475 1478 1481 1482 1483 1483 1482 1481 1481 1479 1478
1383 1391 1398 1403 1411 1414 1420 1424 1430 1435 1439 1447 1451 1456 1460 1464 1468 1471 1474 1475 1475 1476 1475 1475 1473 1471 1469
1373 1381 1388 1394 1399 1405 1409 1415 1421 1425 1430 1439 1442 1447 1452 1455 1461 1464 1465 1467 1468 1468 1468 1467 1466 1462 1460
1361 1368 1375 1382 1389 1396 1402 1407 1414 1420 1425 1430 1433 1438 1443 1448 1452 1456 1458 1459 1460 1461 1461 1460 1458 1457 1454
1349 1356 1363 1372 1379 1387 1394 1400 1407 1412 1418 1422 1426 1432 1437 1440 1443 1447 1451 1451 1452 1453 1454 1453 1452 1451 1450
1340 1348 1355 1361 1371 1376 1384 1390 1398 1403 1408 1415 1420 1425 1430 1434 1436 1440 1442 1443 1444 1446 1449 1448 1446 1445 1443
1327 1336 1343 1352 1360 1367 1373 1382 1387 1392 1401 1406 1412 1418 1423 1427 1430 1432 1435 1436 1438 1441 1442 1441 1440 1439 1437
1321 1327 1334 1342 1350 1358 1362 1371 1378 1388 1393 1398 1405 1411 1416 1419 1425 1426 1429 1430 1431 1433 1434 1435 1435 1434 1433
1311 1317 1328 1335 1342 1347 1355 1362 1372 1382 1388 1392 1398 1404 1407 1412 1419 1421 1423 1425 1427 1427 1427 1429 1429 1427 1427
Wind_Speed
36 32 29 29 31 35 33 31 28 26 26 29 30 31 29 27 25 24 23 23 22 23 23 23 24 24 25
33 34 34 30 27 29 33 33 32 31 31 30 30 29 30 30 29 28 28 27 26 25 25 26 27 28 29
35 33 32 32 32 30 30 31 32 34 35 34 34 31 29 31 32 31 30 29 28 28 28 30 31 32 33
39 37 35 34 36 34 32 32 31 35 36 37 37 33 31 28 29 30 30 29 29 30 30 32 32 34 36
38 40 40 39 40 37 35 33 32 33 33 34 34 35 32 29 29 30 29 29 29 30 30 31 33 34 34
37 42 45 42 41 40 37 37 37 36 34 33 32 33 30 28 27 26 25 26 27 28 29 31 33 34 35
53 49 44 48 42 40 39 39 40 39 39 37 35 32 28 27 25 24 24 24 25 27 29 32 34 35 34
52 48 43 45 43 38 37 38 39 36 35 33 34 32 29 26 26 25 23 23 24 27 28 30 32 34 35
49 46 45 42 35 35 38 39 38 38 36 35 33 28 26 26 25 24 23 23 24 26 26 27 28 28 28
50 49 44 37 38 35 35 40 41 36 40 37 34 31 26 27 26 25 22 21 20 21 21 24 27 29 29
53 51 46 41 36 36 37 37 39 39 38 38 36 32 29 16 25 22 20 21 20 25 26 28 31 31 31
49 49 50 47 41 40 41 35 33 33 33 33 33 32 32 28 24 23 20 20 20 22 23 26 26 26 26
45 50 47 47 46 44 42 35 32 33 30 28 25 25 26 24 21 20 19 19 20 20 23 22 23 22 22
50 53 50 50 48 43 47 42 40 36 30 27 26 24 24 22 19 19 19 17 19 18 17 22 24 22 22
42 48 54 55 48 52 47 47 44 38 34 30 28 24 21 19 19 20 21 19 17 18 20 21 20 19 17
57 54 56 56 53 56 52 48 41 34 33 30 28 24 20 19 20 21 21 19 19 19 19 19 20 17 14
58 54 55 55 57 59 51 40 35 33 29 29 26 24 21 21 19 19 20 17 18 17 17 17 16 14 14
Wind_Direction
229 229 225 226 228 229 233 230 231 231 233 233 234 236 236 236 237 242 246 247 250 257 263 266 270 276 280
218 219 221 222 228 224 227 231 231 233 234 235 237 238 240 242 244 245 247 247 251 257 263 268 272 275 278
215 215 217 218 217 218 225 229 235 238 236 236 242 242 242 241 243 246 249 251 255 260 266 270 273 275 276
217 219 220 218 216 221 223 222 230 235 236 238 240 243 243 245 241 246 251 254 258 262 266 268 271 274 275
216 216 216 213 219 222 223 225 236 237 236 236 235 234 245 242 246 251 255 259 262 264 265 266 271 272 272
217 221 221 223 224 225 226 230 233 232 229 229 231 237 240 241 248 250 252 257 261 264 266 269 271 273 276
221 225 220 229 227 226 229 233 240 238 234 232 232 237 238 241 243 248 250 256 260 264 268 270 272 274 275
234 226 225 230 234 236 243 238 234 236 235 236 237 237 238 243 244 246 246 251 262 270 275 277 275 275 276
233 234 229 235 242 242 239 229 229 231 233 232 232 230 232 237 235 237 246 259 268 273 274 275 275 275 276
226 232 230 234 233 239 234 226 223 222 224 229 224 223 225 231 237 240 251 261 269 272 277 278 278 279 281
221 224 228 234 230 228 231 228 224 226 230 223 222 222 226 221 233 236 248 260 267 276 282 290 286 284 286
217 220 225 222 223 224 227 224 226 234 233 224 227 228 226 229 233 241 253 259 265 275 288 287 290 288 288
216 217 220 224 218 218 218 214 214 217 215 213 219 221 225 231 231 237 254 257 268 280 283 292 292 291 291
214 215 219 221 217 218 214 206 205 195 199 212 222 221 227 231 234 245 254 256 267 274 284 290 296 296 296
211 210 213 214 216 214 211 204 200 200 201 205 213 221 222 229 238 250 251 260 274 278 282 292 296 291 291
212 211 214 212 210 206 200 202 198 206 204 209 211 216 222 229 240 244 248 255 262 266 277 284 290 288 284
220 209 212 214 213 196 194 195 197 204 211 211 214 220 223 225 239 240 245 260 267 273 277 277 279 280 283